Location: Boca do Mato
(22.9085°S, 43.2930°W)
Time: 03:37:35
(UTC+00:00)

PSLV R/B - Visible Passes

Search period start: 23 October 2020 00:00
Search period end: 02 November 2020 00:00
Orbit: 504 x 578 km, 97.8° (Epoch: 22 October)

Date Brightness Start Highest point End Pass type
(mag) Time Alt. Az. Time Alt. Az. Time Alt. Az.
23 Oct 7.2 07:06:28 10° ENE 07:08:58 16° ESE 07:11:28 10° SE visible
24 Oct 7.4 07:00:11 10° E 07:02:02 13° ESE 07:03:51 10° SE visible
25 Oct 7.8 06:54:45 10° ESE 06:55:05 10° ESE 06:55:24 10° ESE visible
28 Oct 7.6 21:25:22 10° SW 21:26:57 12° WSW 21:28:32 10° W visible
01 Nov 5.5 07:36:28 10° NE 07:40:11 39° ESE 07:43:51 10° S visible
